Weather in Slobodki

Russia / Ivanovo Oblast     56°55′30″N   42°20′10″E
temp.,
°C
wind,
m/s
gust,
m/s
humid.,
%
clouds,
%
prec.,
mm/h
press.,
hPa
HPBL,
m
4 march, thu
thu400:00−2w5119499 0.1 1002608
03:00−2wsw6129599 0.5 999632
06:00−1sw71397100 1.7 995767
09:00+1w81592100 3.1 9921100
12:000wnw9138165 0.9 9931388
15:00−2wnw8118365 1.1 9951209
18:00−6nw478863 0.1 998115
21:00−10nw339231 0.1 99924
5 march, fri
fri500:00−12nw23920 0.0 100121
03:00−13wnw23940 0.0 100221
06:00−14wnw33950 0.0 100327
09:00−10w35940 0.0 1004196
12:00−6w469153 0.0 1005542
15:00−4wnw468477 0.1 1006868
18:00−8wnw478974 0.1 1008133
21:00−12nw499237 0.1 1011191
6 march, sat
sat600:00−16nw34949 0.0 101362
03:00−18wnw34945 0.0 101533
06:00−19wnw33950 0.0 101625
09:00−15wnw249427 0.0 1016162
12:00−10w348694 0.1 1016590
15:00−9wnw358397 0.2 1015813
18:00−14wnw239198 0.0 101421
21:00−16w239449 0.0 101420
7 march, sun
sun700:00−17sw34950 0.0 101236
03:00−16ssw499444 0.0 1010149
06:00−12ssw6139167 0.0 1006393
09:00−9ssw8149383 0.3 1002705
12:00−7ssw81392100 0.8 998987
15:00−5ssw81294100 1.7 9941017
18:00−4ssw61296100 1.3 992701
21:00−8wnw71485100 2.9 993930
8 march, mon
mon800:00−13wsw478765 0.0 994113
03:00−13sw379770 0.1 994138
06:00−10ssw4995100 0.1 994312
09:00−8ssw4794100 0.6 994429
12:00−6ssw2392100 0.6 995363
15:00−5wnw2388100 1.0 996481
18:00−7nnw71184100 0.6 999650
21:00−13wnw499699 0.7 1004169